FW9253 Weather Reports


time (UTC)temp
C
wind
direction
speed
KPH
gust
KPH
rain 1hr
cm
rain 24hr
cm
rain mn
cm
humidity
%
barometer
mb
20260507044153 23 0 0.0 0.0 0.00 0.00 0.00 39 1010.6
20260507043254 22 0 0.0 0.0 0.00 0.00 0.00 45 1010.6
20260507042354 20 0 0.0 0.0 0.00 0.00 0.00 49 1010.6
20260507040553 19 0 0.0 0.0 0.00 0.00 0.00 47 1009.6
20260507035654 19 0 0.0 0.0 0.00 0.00 0.00 49 1009.6
20260507034753 18 0 0.0 0.0 0.00 0.00 0.00 50 1009.6
20260507033853 18 0 0.0 0.0 0.00 0.00 0.00 51 1008.6
20260507032955 17 0 0.0 0.0 0.00 0.00 0.00 56 1008.6
20260507032053 16 0 0.0 0.0 0.00 0.00 0.00 55 1009.6
20260507025353 15 0 0.0 0.0 0.00 0.00 0.00 63 1008.6
20260507024453 14 0 0.0 0.0 0.00 0.00 0.00 64 1008.6
20260507022653 13 0 0.0 0.0 0.00 0.00 0.00 67 1008.6
20260507021754 12 0 0.0 0.0 0.00 0.00 0.00 67 1008.6
20260507020853 12 0 0.0 0.0 0.00 0.00 0.00 67 1008.6
20260507015953 12 0 0.0 0.0 0.00 0.00 0.00 67 1008.6
20260507015053 12 0 0.0 0.0 0.00 0.00 0.00 68 1008.6
20260507014153 12 0 0.0 0.0 0.00 0.00 0.00 67 1008.6
20260507013254 12 0 0.0 0.0 0.00 0.00 0.00 67 1008.6
20260507012353 12 0 0.0 0.0 0.00 0.00 0.00 67 1008.6
20260507011453 12 0 0.0 0.0 0.00 0.00 0.00 66 1008.6
20260507010553 12 0 0.0 0.0 0.00 0.00 0.00 66 1008.6
20260507004753 12 0 0.0 0.0 0.00 0.00 0.00 66 1007.6
20260507002952 12 0 0.0 0.0 0.00 0.00 0.00 66 1007.6
20260507002052 12 0 0.0 0.0 0.00 0.00 0.00 66 1007.6
20260507001152 12 0 0.0 0.0 0.00 0.00 0.00 67 1007.6
20260507000254 12 0 0.0 0.0 0.00 0.00 0.00 66 1007.6
20260506235352 12 0 0.0 0.0 0.00 0.00 0.00 67 1007.6
20260506234453 12 0 0.0 0.0 0.00 0.00 0.00 66 1007.6
20260506233552 12 0 0.0 0.0 0.00 0.00 0.00 66 1007.6
20260506232652 12 0 0.0 0.0 0.00 0.00 0.00 66 1007.6
20260506231752 12 0 0.0 0.0 0.00 0.00 0.00 67 1007.6
20260506230852 12 0 0.0 0.0 0.00 0.00 0.00 67 1007.6
20260506225952 12 0 0.0 0.0 0.00 0.00 0.00 66 1007.6
20260506225052 12 0 0.0 0.0 0.00 0.00 0.00 67 1007.6
20260506224152 12 0 0.0 0.0 0.00 0.00 0.00 67 1007.6
20260506223252 12 0 0.0 0.0 0.00 0.00 0.00 68 1007.6
20260506222352 12 0 0.0 0.0 0.00 0.00 0.00 68 1007.6
20260506221452 13 0 0.0 0.0 0.00 0.00 0.00 68 1007.6
20260506220552 13 0 0.0 0.0 0.00 0.00 0.00 69 1007.6
20260506213852 13 0 0.0 0.0 0.00 0.00 0.00 70 1008.6
20260506211152 13 0 0.0 0.0 0.00 0.00 0.00 70 1007.6
20260506204502 14 0 0.0 0.0 0.00 0.00 0.00 71 1008.6
20260506203602 14 0 0.0 0.0 0.00 0.00 0.00 71 1008.6
20260506202702 14 0 0.0 0.0 0.00 0.00 0.00 71 1008.6
20260506201802 14 0 0.0 0.0 0.00 0.00 0.00 73 1008.6
20260506200002 15 0 0.0 0.0 0.00 0.00 0.00 73 1008.6
20260506194202 15 0 0.0 0.0 0.00 0.00 0.00 71 1009.6
20260506193302 15 90 0.0 1.6 0.00 0.00 0.00 68 1009.6
20260506192401 16 225 0.0 3.2 0.00 0.00 0.00 66 1008.6
20260506191501 16 158 0.0 1.6 0.00 0.00 0.00 61 1008.6
20260506185702 17 11 6.4 9.7 0.00 0.00 0.00 43 1008.6
20260506184801 17 181 0.0 1.6 0.00 0.00 0.00 36 1008.6
20260506183901 17 0 0.0 0.0 0.00 0.00 0.00 37 1008.6
20260506183001 17 139 0.0 3.2 0.00 0.00 0.00 38 1008.6
20260506182101 16 158 0.0 4.8 0.00 0.00 0.00 39 1008.6
20260506180302 16 158 0.0 1.6 0.00 0.00 0.00 39 1009.6
20260506175401 16 0 0.0 0.0 0.00 0.00 0.00 38 1009.6
20260506174502 16 0 0.0 0.0 0.00 0.00 0.00 39 1009.6
20260506173601 16 182 0.0 3.2 0.00 0.00 0.00 38 1009.6
20260506172701 16 0 0.0 0.0 0.00 0.00 0.00 38 1009.6
20260506171801 17 0 0.0 0.0 0.00 0.00 0.00 37 1009.6
20260506170901 17 0 0.0 0.0 0.00 0.00 0.00 36 1009.6
20260506165101 17 0 0.0 0.0 0.00 0.00 0.00 35 1008.6
20260506164201 18 0 0.0 0.0 0.00 0.00 0.00 34 1009.6
20260506162401 19 0 0.0 0.0 0.00 0.00 0.00 29 1009.6
20260506161501 20 0 0.0 0.0 0.00 0.00 0.00 27 1009.6
20260506160606 20 0 0.0 0.0 0.00 0.00 0.00 22 1009.6
20260506155700 21 0 0.0 0.0 0.00 0.00 0.00 7 1010.6
20260506154801 22 0 0.0 0.0 0.00 0.00 0.00 3 1010.6
20260506153900 23 0 0.0 0.0 0.00 0.00 0.00 2 1009.6
20260506153004 25 0 0.0 0.0 0.00 0.00 0.00 2 1009.6
20260506152100 26 0 0.0 0.0 0.00 0.00 0.00 2 1009.6
20260506151201 26 0 0.0 0.0 0.00 0.00 0.00 2 1009.6
20260506150304 27 0 0.0 0.0 0.00 0.00 0.00 2 1009.6
20260506145407 27 0 0.0 0.0 0.00 0.00 0.00 2 1009.6
20260506144509 27 0 0.0 0.0 0.00 0.00 0.00 2 1009.6
20260506143606 27 0 0.0 0.0 0.00 0.00 0.00 2 1009.6
20260506142707 27 0 0.0 0.0 0.00 0.00 0.00 2 1009.6
20260506140900 27 168 0.0 3.2 0.00 0.00 0.00 2 1009.6
20260506140000 27 184 0.0 3.2 0.00 0.00 0.00 2 1009.6
20260506135100 27 0 0.0 0.0 0.00 0.00 0.00 2 1009.6
20260506134206 28 0 0.0 0.0 0.00 0.00 0.00 2 1009.6
20260506133305 28 0 0.0 0.0 0.00 0.00 0.00 2 1009.6
20260506132406 28 0 0.0 0.0 0.00 0.00 0.00 2 1009.6
20260506131507 28 253 0.0 4.8 0.00 0.00 0.00 2 1009.6
20260506130600 28 0 0.0 0.0 0.00 0.00 0.00 2 1009.6
20260506125704 29 292 0.0 1.6 0.00 0.00 0.00 2 1010.6
20260506123900 30 0 0.0 0.0 0.00 0.00 0.00 2 1010.6
20260506123000 30 0 0.0 0.0 0.00 0.00 0.00 2 1010.6
20260506122100 30 0 0.0 0.0 0.00 0.00 0.00 2 1010.6
20260506121200 30 112 0.0 1.6 0.00 0.00 0.00 2 1010.6
20260506120300 30 22 0.0 1.6 0.00 0.00 0.00 2 1010.6
20260506114500 30 0 0.0 0.0 0.00 0.00 0.00 2 1010.6
20260506112659 30 68 0.0 3.2 0.00 0.00 0.00 2 1011.6
20260506105959 30 330 0.0 3.2 0.00 0.00 0.00 2 1011.6
20260506103259 30 50 0.0 9.7 0.00 0.00 0.00 2 1011.6
20260506102359 30 23 0.0 6.4 0.00 0.00 0.00 2 1011.6
20260506101500 31 299 0.0 1.6 0.00 0.00 0.00 2 1011.6
20260506100559 31 0 0.0 0.0 0.00 0.00 0.00 2 1012.7
20260506095659 30 22 0.0 8.0 0.00 0.00 0.00 2 1011.6
20260506094759 30 0 0.0 0.0 0.00 0.00 0.00 2 1011.6
20260506093859 30 0 0.0 0.0 0.00 0.00 0.00 2 1010.6
20260506092959 30 337 0.0 6.4 0.00 0.00 0.00 2 1010.6
20260506092059 30 0 0.0 0.0 0.00 0.00 0.00 2 1010.6
20260506091159 30 23 0.0 4.8 0.00 0.00 0.00 2 1011.6
20260506085359 30 314 0.0 6.4 0.00 0.00 0.00 2 1011.6
20260506084459 30 0 0.0 0.0 0.00 0.00 0.00 2 1011.6
20260506083559 29 0 0.0 0.0 0.00 0.00 0.00 2 1011.6
20260506082659 28 0 0.0 0.0 0.00 0.00 0.00 2 1011.6
20260506080859 26 0 0.0 0.0 0.00 0.00 0.00 2 1011.6
20260506072358 24 0 0.0 0.0 0.00 0.00 0.00 2 1013.7
20260506071459 24 0 0.0 0.0 0.00 0.00 0.00 2 1013.7
20260506062059 28 0 0.0 0.0 0.00 0.00 0.00 2 1013.7
20260506061158 28 0 0.0 0.0 0.00 0.00 0.00 2 1013.7
20260506060258 28 0 0.0 0.0 0.00 0.00 0.00 2 1013.7
20260506045058 24 0 0.0 0.0 0.00 0.00 0.00 2 1011.6